User: anonymous
Location: Montague
(41.3030°N, 74.7940°W)
Time: 20:34:31
(UTC-04:00)
Language:

Cosmos 1461 - Orbit

View from above orbital plane
View from above orbital plane
View from above satellite
View from above satellite

Ground track
Ground track

The orbit data is extracted from the following two-line orbital elements,

1 14064U 83044A   14205.59123780  .00001018  00000-0  99685-4 0  5695
2 14064 065.0057 311.7550 0094440 106.2163 254.9867 14.88717955565420
Epoch (UTC): 24 July 2014 14:11:22
Eccentricity: 0.0094440
inclination: 65.0057°
perigee height: 536 km
apogee height: 668 km
right ascension of ascending node: 311.7550°
argument of perigee: 106.2163°
revolutions per day: 14.88717955
mean anomaly at epoch: 254.9867°
orbit number at epoch: 56542

The dashed part of the orbit path shows where the satellite is in the earth's shadow,  

DLR